CW3517 Weather Reports


time (UTC)temp
C
wind
direction
speed
KPH
gust
KPH
rain 1hr
cm
rain 24hr
cm
rain mn
cm
humidity
%
barometer
mb
20260507171218 14 156 6.4 12.9 0.00 0.00 0.00 57 1014.1
20260507170003 15 161 6.4 16.1 0.00 0.00 0.00 55 1014.1
20260507165004 15 184 6.4 14.5 0.00 0.00 0.00 55 1014.0
20260507164003 15 182 4.8 12.9 0.00 0.00 0.00 56 1014.0
20260507163003 15 177 8.0 24.1 0.00 0.00 0.00 55 1014.1
20260507162218 16 162 6.4 19.3 0.00 0.00 0.00 52 1014.1
20260507161003 16 162 8.0 22.5 0.00 0.00 0.00 54 1014.1
20260507160003 16 162 11.3 20.9 0.00 0.00 0.00 50 1014.1
20260507155217 16 146 12.9 24.1 0.00 0.00 0.00 49 1014.2
20260507154003 17 166 8.0 24.1 0.00 0.00 0.00 49 1014.2
20260507153003 17 153 12.9 22.5 0.00 0.00 0.00 49 1014.2
20260507152003 16 154 8.0 24.1 0.00 0.00 0.00 55 1014.2
20260507151217 16 159 6.4 16.1 0.00 0.00 0.00 55 1014.2
20260507150003 16 168 8.0 16.1 0.00 0.00 0.00 54 1014.3
20260507145003 16 166 8.0 20.9 0.00 0.00 0.00 53 1014.4
20260507144003 16 173 6.4 19.3 0.00 0.00 0.00 54 1014.4
20260507143003 16 168 11.3 20.9 0.00 0.00 0.00 54 1014.6
20260507142003 17 176 8.0 24.1 0.00 0.00 0.00 54 1014.6
20260507141003 17 163 11.3 22.5 0.00 0.00 0.00 54 1014.8
20260507140003 16 177 11.3 20.9 0.00 0.00 0.00 58 1014.7
20260507135003 16 163 8.0 24.1 0.00 0.00 0.00 55 1014.7
20260507134004 16 152 12.9 24.1 0.00 0.00 0.00 56 1014.7
20260507133219 16 158 12.9 24.1 0.00 0.00 0.00 52 1014.7
20260507132003 16 154 11.3 25.7 0.00 0.00 0.00 59 1014.7
20260507131003 16 165 12.9 20.9 0.00 0.00 0.00 56 1014.7
20260507130003 16 170 6.4 12.9 0.00 0.00 0.00 64 1014.8
20260507125003 15 189 6.4 14.5 0.00 0.00 0.00 68 1014.8
20260507124003 14 173 8.0 19.3 0.00 0.00 0.00 64 1014.8
20260507123003 13 163 8.0 16.1 0.00 0.00 0.00 67 1014.9
20260507122003 13 178 6.4 12.9 0.00 0.00 0.00 67 1015.0
20260507121003 13 151 11.3 20.9 0.00 0.00 0.00 68 1015.0
20260507120003 14 155 8.0 22.5 0.00 0.00 0.00 67 1015.0
20260507115003 15 169 8.0 16.1 0.00 0.00 0.00 71 1015.0
20260507114003 15 180 6.4 16.1 0.00 0.00 0.00 69 1015.0
20260507113003 15 180 6.4 20.9 0.00 0.00 0.00 68 1015.0
20260507112004 16 154 11.3 22.5 0.00 0.00 0.00 70 1015.0
20260507111003 16 170 11.3 20.9 0.00 0.00 0.00 65 1015.0
20260507110003 16 163 12.9 25.7 0.00 0.00 0.00 67 1015.0
20260507105003 16 170 12.9 22.5 0.00 0.00 0.00 69 1015.0
20260507104003 16 155 14.5 29.0 0.00 0.00 0.00 64 1015.0
20260507103003 16 170 11.3 20.9 0.00 0.00 0.00 65 1015.1
20260507102217 16 193 8.0 19.3 0.00 0.00 0.00 64 1015.0
20260507101003 15 146 8.0 22.5 0.00 0.00 0.00 71 1015.1
20260507100003 15 147 11.3 22.5 0.00 0.00 0.00 68 1015.2
20260507095003 15 186 4.8 14.5 0.00 0.00 0.00 71 1015.1
20260507094003 14 186 6.4 16.1 0.00 0.00 0.00 71 1015.0
20260507093003 14 205 6.4 14.5 0.00 0.00 0.00 74 1015.0
20260507092003 14 192 6.4 14.5 0.00 0.00 0.00 74 1015.0
20260507091217 14 196 6.4 14.5 0.00 0.00 0.00 74 1015.0
20260507090005 13 153 8.0 19.3 0.00 0.00 0.00 76 1015.0
20260507085217 13 162 6.4 19.3 0.00 0.00 0.00 78 1015.0
20260507084217 13 171 6.4 19.3 0.00 0.00 0.00 77 1015.0
20260507083003 13 132 11.3 19.3 0.00 0.00 0.00 77 1015.1
20260507082003 12 154 8.0 16.1 0.00 0.00 0.00 83 1015.1
20260507081003 12 160 4.8 12.9 0.00 0.00 0.00 84 1015.1
20260507080003 12 157 3.2 9.7 0.00 0.00 0.00 83 1015.1
20260507075003 11 147 3.2 6.4 0.00 0.00 0.00 86 1015.1
20260507074216 11 146 3.2 6.4 0.00 0.00 0.00 87 1015.1
20260507073003 10 143 1.6 4.8 0.00 0.00 0.00 87 1015.0
20260507072003 10 141 1.6 4.8 0.00 0.00 0.00 87 1014.9
20260507071003 10 92 1.6 3.2 0.00 0.00 0.00 88 1014.8
20260507070005 9 0 0.0 3.2 0.00 0.00 0.00 90 1014.8
20260507065003 8 0 0.0 0.0 0.00 0.00 0.00 90 1014.8
20260507064003 8 0 0.0 0.0 0.00 0.00 0.00 90 1014.7
20260507063003 8 0 0.0 1.6 0.00 0.00 0.00 91 1014.6
20260507062004 8 0 0.0 1.6 0.00 0.00 0.00 91 1014.6
20260507061003 8 0 0.0 3.2 0.00 0.00 0.00 92 1014.5
20260507060003 7 56 1.6 4.8 0.00 0.00 0.00 93 1014.5
20260507055003 7 0 0.0 3.2 0.00 0.00 0.00 93 1014.5
20260507054003 7 0 0.0 0.0 0.00 0.00 0.00 93 1014.4
20260507053005 7 0 0.0 3.2 0.00 0.00 0.00 93 1014.4
20260507052003 7 0 0.0 3.2 0.00 0.00 0.00 94 1014.4
20260507051217 7 0 0.0 0.0 0.00 0.00 0.00 94 1014.4
20260507050003 7 0 0.0 0.0 0.00 0.00 0.00 94 1014.4
20260507045217 7 0 0.0 0.0 0.00 0.00 0.00 93 1014.4
20260507044003 7 0 0.0 0.0 0.00 0.00 0.00 93 1014.4
20260507043004 7 0 0.0 0.0 0.00 0.00 0.00 94 1014.4
20260507042003 7 0 0.0 0.0 0.00 0.00 0.00 93 1014.3
20260507041003 7 0 0.0 0.0 0.00 0.00 0.00 93 1014.2
20260507040003 7 0 0.0 0.0 0.00 0.00 0.00 92 1014.2
20260507035003 7 0 0.0 0.0 0.00 0.00 0.00 92 1014.1
20260507034003 7 0 0.0 0.0 0.00 0.00 0.00 91 1014.2
20260507033003 7 0 0.0 0.0 0.00 0.00 0.00 91 1014.1
20260507032003 7 0 0.0 0.0 0.00 0.00 0.00 90 1014.0
20260507031003 7 0 0.0 0.0 0.00 0.00 0.00 90 1014.0
20260507030004 7 0 0.0 1.6 0.00 0.00 0.00 89 1014.0
20260507025003 8 37 3.2 6.4 0.00 0.00 0.00 89 1014.0
20260507024003 8 37 3.2 8.0 0.00 0.00 0.00 89 1013.9
20260507023003 8 32 3.2 8.0 0.00 0.00 0.00 89 1013.9
20260507022003 8 0 0.0 0.0 0.00 0.00 0.00 90 1013.9
20260507021003 8 0 0.0 0.0 0.00 0.00 0.00 90 1013.8
20260507020003 8 0 0.0 0.0 0.00 0.00 0.00 88 1013.8
20260507015004 8 0 0.0 0.0 0.00 0.00 0.00 87 1013.9
20260507014003 8 29 1.6 4.8 0.00 0.00 0.00 87 1013.9
20260507013003 8 29 3.2 4.8 0.00 0.00 0.00 87 1013.9
20260507012003 8 36 3.2 6.4 0.00 0.00 0.00 86 1013.9
20260507011218 9 39 3.2 6.4 0.00 0.00 0.00 87 1013.9
20260507010003 9 38 4.8 8.0 0.00 0.00 0.00 86 1013.9
20260507005003 9 69 3.2 8.0 0.00 0.00 0.00 87 1014.0
20260507004218 9 0 0.0 4.8 0.00 0.00 0.00 87 1013.9
20260507003218 9 0 0.0 0.0 0.00 0.00 0.00 87 1014.0
20260507002003 9 0 0.0 0.0 0.00 0.00 0.00 86 1014.1
20260507001003 9 0 0.0 0.0 0.00 0.00 0.00 85 1014.1
20260507000003 9 0 0.0 0.0 0.00 0.00 0.00 84 1014.2
20260506235003 9 0 0.0 0.0 0.00 0.00 0.00 84 1014.2
20260506234003 9 0 0.0 0.0 0.00 0.00 0.00 84 1014.2
20260506233003 9 0 0.0 0.0 0.00 0.00 0.00 84 1014.1
20260506232003 9 0 0.0 0.0 0.00 0.00 0.00 84 1014.1
20260506231003 9 0 0.0 0.0 0.00 0.00 0.00 84 1014.1
20260506230003 9 0 0.0 0.0 0.00 0.00 0.00 85 1014.2
20260506225003 9 0 0.0 0.0 0.00 0.00 0.00 84 1014.2
20260506224003 10 0 0.0 0.0 0.00 0.00 0.00 83 1014.2
20260506223003 10 0 0.0 0.0 0.00 0.00 0.00 82 1014.2
20260506222003 10 0 0.0 0.0 0.00 0.00 0.00 81 1014.2
20260506221003 10 0 0.0 0.0 0.00 0.00 0.00 81 1014.1
20260506220003 10 0 0.0 0.0 0.00 0.00 0.00 79 1014.1
20260506215003 10 0 0.0 0.0 0.00 0.00 0.00 80 1014.0
20260506214003 10 0 0.0 0.0 0.00 0.00 0.00 80 1014.1
20260506213003 10 0 0.0 0.0 0.00 0.00 0.00 79 1014.1
20260506212216 10 0 0.0 0.0 0.00 0.00 0.00 78 1014.1
20260506211004 10 0 0.0 0.0 0.00 0.00 0.00 78 1014.1
20260506210003 10 0 0.0 0.0 0.00 0.00 0.00 77 1014.0
20260506205003 10 0 0.0 0.0 0.00 0.00 0.00 78 1014.0
20260506204216 10 0 0.0 0.0 0.00 0.00 0.00 78 1013.9
20260506203218 11 0 0.0 0.0 0.00 0.00 0.00 79 1013.9
20260506202218 11 0 0.0 0.0 0.00 0.00 0.00 78 1013.9
20260506201003 11 0 0.0 0.0 0.00 0.00 0.00 78 1013.8
20260506200003 11 0 0.0 0.0 0.00 0.00 0.00 77 1013.7
20260506195218 11 0 0.0 0.0 0.00 0.00 0.00 75 1013.7
20260506194218 11 0 0.0 3.2 0.00 0.00 0.00 74 1013.6
20260506193003 11 0 0.0 4.8 0.00 0.00 0.00 73 1013.5
20260506192003 12 0 0.0 3.2 0.00 0.00 0.00 73 1013.5
20260506191218 12 242 1.6 4.8 0.00 0.00 0.00 72 1013.5
20260506190003 12 243 1.6 6.4 0.00 0.00 0.00 71 1013.4
20260506185003 12 250 3.2 8.0 0.00 0.00 0.00 69 1013.5
20260506184003 12 252 3.2 6.4 0.00 0.00 0.00 68 1013.4
20260506183003 12 251 3.2 8.0 0.00 0.00 0.00 69 1013.4
20260506182003 13 246 3.2 8.0 0.00 0.00 0.00 68 1013.4
20260506181003 13 257 3.2 6.4 0.00 0.00 0.00 67 1013.3
20260506180217 13 254 3.2 9.7 0.00 0.00 0.00 66 1013.3
20260506175217 13 245 4.8 8.0 0.00 0.00 0.00 64 1013.2
20260506174219 13 240 3.2 6.4 0.00 0.00 0.00 63 1013.1
20260506173003 14 209 1.6 4.8 0.00 0.00 0.00 61 1013.1
20260506172003 14 0 0.0 0.0 0.00 0.00 0.00 61 1013.0